Location: Unspecified
(48.2082°N, 0.0000°E)
Time: 21:30:12
(UTC+00:00)

Transit 2A - All Passes

Search period start: 24 June 2019 00:00
Search period end: 04 July 2019 00:00
Orbit: 593 x 966 km, 66.7° (Epoch: 23 June)

Date Brightness Start Highest point End Pass type
(mag) Time Alt. Az. Time Alt. Az. Time Alt. Az.
24 Jun - 01:01:33 10° WSW 01:07:44 49° NW 01:13:44 10° NNE visible
24 Jun - 02:48:11 10° WNW 02:52:27 18° NNW 02:56:35 10° NNE visible
24 Jun - 04:35:38 10° NNW 04:38:14 13° N 04:40:44 10° NNE daylight
24 Jun - 06:19:29 10° NNW 06:23:51 21° NNE 06:27:56 10° ENE daylight
24 Jun - 08:02:29 10° NNW 08:08:13 70° NE 08:13:19 10° SE daylight
24 Jun - 09:46:47 10° WNW 09:50:46 21° WSW 09:54:29 10° SSW daylight
24 Jun - 22:45:03 10° S 22:50:31 31° ESE 22:55:55 10° NE visible
25 Jun - 00:27:10 10° SW 00:33:31 63° NW 00:39:40 10° NNE visible
25 Jun - 02:13:13 10° WNW 02:17:57 21° NNW 02:22:31 10° NNE visible
25 Jun - 04:00:58 10° NNW 04:03:35 13° N 04:06:08 10° NNE daylight
25 Jun - 05:45:25 10° NNW 05:49:21 18° NNE 05:53:03 10° ENE daylight
25 Jun - 07:28:23 10° NNW 07:34:01 52° NE 07:39:02 10° SE daylight
25 Jun - 09:12:11 10° NW 09:16:55 29° WSW 09:21:13 10° S daylight
25 Jun - 22:11:50 10° SSE 22:16:37 23° ESE 22:21:23 10° ENE visible
25 Jun - 23:52:55 10° SW 23:59:20 81° NW 00:05:34 10° NE visible
26 Jun - 01:38:19 10° W 01:43:29 25° NNW 01:48:29 10° NNE visible
26 Jun - 03:26:07 10° NW 03:28:57 13° N 03:31:42 10° NNE daylight
26 Jun - 05:11:19 10° NNW 05:14:47 16° NNE 05:18:06 10° NE daylight
26 Jun - 06:54:19 10° NNW 06:59:44 40° NE 07:04:37 10° ESE daylight
26 Jun - 08:37:47 10° NW 08:43:01 41° WSW 08:47:41 10° S daylight
26 Jun - 21:39:01 10° SE 21:42:47 17° ESE 21:46:32 10° ENE visible
26 Jun - 23:18:49 10° SSW 23:25:12 78° ESE 23:31:26 10° NE visible
27 Jun - 01:03:32 10° W 01:09:05 30° NW 01:14:27 10° NNE visible
27 Jun - 02:51:09 10° NW 02:54:20 14° NNW 02:57:26 10° NNE visible
27 Jun - 04:37:09 10° NNW 04:40:13 14° NNE 04:43:09 10° NE daylight
27 Jun - 06:20:16 10° NNW 06:25:24 32° NE 06:30:04 10° ESE daylight
27 Jun - 08:03:31 10° NW 08:09:01 58° WSW 08:13:55 10° SSE daylight
27 Jun - 21:07:08 10° ESE 21:09:00 11° E 21:10:52 10° E visible
27 Jun - 22:44:52 10° SSW 22:51:07 59° ESE 22:57:15 10° NE visible
28 Jun - 00:28:52 10° WSW 00:34:44 37° NW 00:40:24 10° NNE visible
28 Jun - 02:16:06 10° NW 02:19:44 16° NNW 02:23:15 10° NNE visible
28 Jun - 04:02:54 10° NNW 04:05:36 13° N 04:08:13 10° NE daylight
28 Jun - 05:46:13 10° NNW 05:51:00 26° NNE 05:55:24 10° E daylight
28 Jun - 07:29:19 10° NW 07:34:58 81° WSW 07:39:59 10° SSE daylight
28 Jun - 09:14:45 10° WNW 09:17:06 13° W 09:19:20 10° SW daylight
28 Jun - 22:11:07 10° S 22:17:07 44° ESE 22:22:59 10° NE visible
28 Jun - 23:54:18 10° WSW 00:00:26 47° NW 00:06:21 10° NNE visible
29 Jun - 01:41:05 10° WNW 01:45:11 18° NNW 01:49:09 10° NNE visible
29 Jun - 03:28:28 10° NNW 03:30:58 13° N 03:33:24 10° NNE daylight
29 Jun - 05:12:10 10° NNW 05:16:34 21° NNE 05:20:38 10° ENE daylight
29 Jun - 06:55:10 10° NNW 07:00:50 75° NE 07:05:53 10° SE daylight
29 Jun - 08:39:36 10° WNW 08:43:18 19° WSW 08:46:46 10° SSW daylight
29 Jun - 21:37:34 10° S 21:43:09 33° ESE 21:48:37 10° NE visible
29 Jun - 23:19:53 10° SW 23:26:11 60° NW 23:32:17 10° NNE visible
30 Jun - 01:06:05 10° WNW 01:10:40 21° NNW 01:15:06 10° NNE visible
30 Jun - 02:53:51 10° NNW 02:56:20 12° N 02:58:45 10° NNE visible
30 Jun - 04:38:07 10° NNW 04:42:04 18° NNE 04:45:46 10° ENE daylight
30 Jun - 06:21:03 10° NNW 06:26:39 55° NE 06:31:38 10° SE daylight
30 Jun - 08:04:57 10° NW 08:09:28 27° WSW 08:13:36 10° SSW daylight
30 Jun - 21:04:16 10° SSE 21:09:13 24° ESE 21:14:07 10° ENE visible
30 Jun - 22:45:36 10° SW 22:52:00 77° NW 22:58:12 10° NNE visible
01 Jul - 00:31:10 10° W 00:36:12 24° NNW 00:41:03 10° NNE visible
01 Jul - 02:19:02 10° NNW 02:21:42 13° N 02:24:18 10° NNE visible
01 Jul - 04:04:02 10° NNW 04:07:31 16° NNE 04:10:49 10° NE daylight
01 Jul - 05:47:00 10° NNW 05:52:24 42° NE 05:57:14 10° ESE daylight
01 Jul - 07:30:31 10° NW 07:35:34 38° WSW 07:40:07 10° S daylight
01 Jul - 20:31:21 10° SE 20:35:22 18° ESE 20:39:21 10° ENE daylight
01 Jul - 22:11:28 10° SSW 22:17:52 83° ESE 22:24:04 10° NE visible
01 Jul - 23:56:21 10° W 00:01:47 29° NW 00:07:01 10° NNE visible
02 Jul - 01:44:04 10° NW 01:47:05 14° NNW 01:50:00 10° NNE visible
02 Jul - 03:29:54 10° NNW 03:32:56 14° NNE 03:35:51 10° NE daylight
02 Jul - 05:12:56 10° NNW 05:18:04 33° NE 05:22:43 10° ESE daylight
02 Jul - 06:56:13 10° NW 07:01:36 54° WSW 07:06:24 10° SSE daylight
02 Jul - 19:59:09 10° ESE 20:01:35 12° E 20:03:59 10° ENE daylight
02 Jul - 21:37:29 10° SSW 21:43:46 63° ESE 21:49:53 10° NE visible
02 Jul - 23:21:39 10° WSW 23:27:26 36° NW 23:32:59 10° NNE visible
03 Jul - 01:09:01 10° NW 01:12:29 15° NNW 01:15:50 10° NNE visible
03 Jul - 02:55:40 10° NNW 02:58:20 13° N 03:00:54 10° NE visible
03 Jul - 04:38:53 10° NNW 04:43:41 26° NE 04:48:05 10° E daylight
03 Jul - 06:22:00 10° NW 06:27:34 76° WSW 06:32:30 10° SSE daylight
03 Jul - 08:07:53 10° W 08:09:37 12° W 08:11:16 10° WSW daylight
03 Jul - 21:03:41 10° S 21:09:44 47° ESE 21:15:38 10° NE visible
03 Jul - 22:47:03 10° WSW 22:53:07 44° NW 22:58:57 10° NNE visible
